Flag for U.S.A. Weather past 2 weeks in Atascadero, California, U.S.A.

Now
79 °F

Clear.


Feels Like: 79 °F
Forecast: 60 / 90 °F
Wind: 15 mph from Northwest

Location: Paso Robles Municipal Airport

Current Time: Aug 30, 2014 at 9:21:14 PM

Latest Report: Aug 30, 2014 at 8:53 PM


Visibility: 10 mi

Pressure: 29.82 "Hg

Humidity: 31%

Dew point: 46 °F

Location of AtascaderoLocation

Historic Weather in Atascadero — Graph

°F

Atascadero temperature yesterday

Maximum temperature yesterday: 101 °F (at 3:53 PM)
Minimum temperature yesterday: 58 °F (at 6:53 AM)
Average temperature yesterday: 75 °F

Past Weeks' High & Low Weather Summary

 TemperatureHumidityPressure
High103 °F (Aug 30, 2:53 PM)93% (Aug 18, 6:53 AM)30.07 "Hg (Aug 18, 6:53 AM)
Low48 °F (Aug 28, 6:53 AM)5% (Aug 28, 2:53 PM)29.74 "Hg (Aug 18, 4:53 PM)
Average70 °F55%29.91 "Hg
* Reported Aug 15 7:53 PM — Aug 30 7:53 PM, Atascadero, Weather by CustomWeather, © 2014

Note: Actual official high and low records may vary slightly from our data, if they occured in-between our weather recording intervals... More about our weather records

Advertising

Atascadero weather history for previous 24 hours

 ConditionsComfort  
Time TempWeatherWind HumidityBarometerVisibility
7:53 PM
Aug 30
83 °FSunny.13 mph23%29.80 "Hg10 mi
6:53 PM89 °FSunny.17 mph21%29.78 "Hg10 mi
5:53 PM99 °FSunny.18 mph12%29.77 "Hg10 mi
4:53 PM101 °FSunny.17 mph9%29.77 "Hg10 mi
3:53 PM103 °FSunny.17 mph5%29.78 "Hg10 mi
2:53 PM103 °FSunny.13 mph5%29.80 "Hg10 mi
1:53 PM100 °FSunny.12 mph7%29.82 "Hg10 mi
12:53 PM97 °FSunny.12 mph10%29.84 "Hg10 mi
11:53 AM92 °FSunny.10 mph15%29.87 "Hg10 mi
10:53 AM83 °FSunny.5 mph26%29.88 "Hg10 mi
9:53 AM74 °FSunny.No wind43%29.89 "Hg10 mi
8:53 AM68 °FSunny.No wind59%29.90 "Hg10 mi
7:53 AM62 °FSunny.No wind67%29.90 "Hg10 mi
6:53 AM57 °FClear.3 mph72%29.89 "Hg10 mi
5:53 AM58 °FClear.No wind75%29.88 "Hg10 mi
4:53 AM60 °FClear.No wind75%29.87 "Hg10 mi
3:53 AM61 °FClear.3 mph75%29.87 "Hg10 mi
2:53 AM64 °FClear.6 mph70%29.86 "Hg10 mi
1:53 AM65 °FClear.3 mph66%29.88 "Hg10 mi
12:53 AM68 °FClear.6 mph59%29.88 "Hg10 mi
11:53 PM
Aug 29
71 °FClear.8 mph51%29.87 "Hg10 mi
10:53 PM73 °FClear.9 mph46%29.87 "Hg10 mi
9:53 PM77 °FClear.8 mph36%29.87 "Hg10 mi
Weather by CustomWeather, © 2014

See weather overviewHow to use our weather pages